Time,TemperatureF,DewpointF,PressureIn,WindDirection,WindDirectionDegrees,WindSpeedMPH,WindSpeedGustMPH,Humidity,HourlyPrecipIn,Conditions,Clouds,dailyrainin,SoftwareType,DateUTC
2013-03-18 00:00:00,49.8,29.3,30.01,SSE,150,2.0,5.0,45,0.00,,---,0.00,VWS V13.01,2013-03-18 07:00:00,
2013-03-18 00:30:00,51.4,23.3,30.02,SSE,150,2.0,5.0,33,0.00,,---,0.00,VWS V13.01,2013-03-18 07:30:00,
2013-03-18 01:00:00,51.7,22.8,30.01,South,182,0.0,6.0,32,0.00,,---,0.00,VWS V13.01,2013-03-18 08:00:00,
2013-03-18 01:30:00,52.2,27.4,30.02,South,190,2.0,8.0,38,0.00,,---,0.00,VWS V13.01,2013-03-18 08:30:00,
2013-03-18 02:00:00,51.0,24.3,30.02,South,171,3.0,7.0,35,0.00,,---,0.00,VWS V13.01,2013-03-18 09:00:00,
2013-03-18 02:30:00,50.2,20.8,30.03,SSW,211,0.0,5.0,31,0.00,,---,0.00,VWS V13.01,2013-03-18 09:30:00,
2013-03-18 03:00:00,49.2,25.3,30.04,SSW,198,2.0,5.0,39,0.00,,---,0.00,VWS V13.01,2013-03-18 10:00:00,
2013-03-18 03:30:00,49.5,20.9,30.05,South,191,3.0,4.0,32,0.00,,---,0.00,VWS V13.01,2013-03-18 10:30:00,
2013-03-18 04:00:00,48.0,27.7,30.05,NE,40,0.0,7.0,45,0.00,,---,0.00,VWS V13.01,2013-03-18 11:00:00,
2013-03-18 04:30:00,47.0,27.3,30.08,ENE,70,2.0,10.0,46,0.00,,---,0.00,VWS V13.01,2013-03-18 11:30:00,
2013-03-18 05:00:00,45.1,27.1,30.10,ENE,69,2.0,6.0,49,0.00,,---,0.00,VWS V13.01,2013-03-18 12:00:00,
2013-03-18 05:30:00,47.1,22.8,30.11,ENE,58,5.0,9.0,38,0.00,,---,0.00,VWS V13.01,2013-03-18 12:30:00,
2013-03-18 06:00:00,46.0,25.3,30.14,ENE,72,6.0,12.0,44,0.00,,---,0.00,VWS V13.01,2013-03-18 13:00:00,
2013-03-18 07:00:00,49.2,26.5,30.18,ENE,58,0.0,7.0,41,0.00,,---,0.00,VWS V13.01,2013-03-18 14:00:00,
2013-03-18 07:30:00,52.0,28.5,30.17,East,97,4.0,7.0,40,0.00,,---,0.00,VWS V13.01,2013-03-18 14:30:00,
2013-03-18 08:00:00,55.9,28.0,30.16,NNE,25,3.0,7.0,34,0.00,,---,0.00,VWS V13.01,2013-03-18 15:00:00,
2013-03-18 08:30:00,58.3,30.1,30.18,NE,41,5.0,10.0,34,0.00,,---,0.00,VWS V13.01,2013-03-18 15:30:00,
2013-03-18 09:30:00,61.5,29.8,30.16,North,0,0.0,9.0,30,0.00,,---,0.00,VWS V13.01,2013-03-18 16:30:00,
2013-03-18 10:00:00,65.0,27.4,30.14,WNW,287,1.0,5.0,24,0.00,,---,0.00,VWS V13.01,2013-03-18 17:00:00,
2013-03-18 10:30:00,66.1,33.8,30.15,South,179,1.0,9.0,30,0.00,,---,0.00,VWS V13.01,2013-03-18 17:30:00,
2013-03-18 11:00:00,64.2,37.4,30.15,NE,49,7.0,12.0,37,0.00,,---,0.00,VWS V13.01,2013-03-18 18:00:00,
2013-03-18 11:30:00,65.3,35.5,30.10,NNW,328,4.0,14.0,33,0.00,,---,0.00,VWS V13.01,2013-03-18 18:30:00,
2013-03-18 12:00:00,66.4,37.2,30.09,South,172,1.0,8.0,34,0.00,,---,0.00,VWS V13.01,2013-03-18 19:00:00,
2013-03-18 12:30:00,63.9,44.9,30.08,North,1,1.0,12.0,50,0.00,,---,0.00,VWS V13.01,2013-03-18 19:30:00,
2013-03-18 13:00:00,64.5,44.9,30.08,North,0,6.0,14.0,49,0.00,,---,0.00,VWS V13.01,2013-03-18 20:00:00,
2013-03-18 13:30:00,62.0,43.7,30.08,NNE,18,6.0,13.0,51,0.00,,---,0.00,VWS V13.01,2013-03-18 20:30:00,
2013-03-18 14:00:00,61.6,45.3,30.08,NNE,15,5.0,12.0,55,0.00,,---,0.00,VWS V13.01,2013-03-18 21:00:00,
2013-03-18 14:30:00,61.3,46.4,30.09,ENE,70,3.0,12.0,58,0.00,,---,0.00,VWS V13.01,2013-03-18 21:30:00,
2013-03-18 15:30:00,58.1,46.0,30.11,NNE,26,5.0,13.0,64,0.00,,---,0.00,VWS V13.01,2013-03-18 22:30:00,
2013-03-18 16:00:00,58.1,46.0,30.11,North,4,7.0,12.0,64,0.00,,---,0.00,VWS V13.01,2013-03-18 23:00:00,
2013-03-18 16:30:00,55.4,45.8,30.14,NNE,28,4.0,12.0,70,0.00,,---,0.00,VWS V13.01,2013-03-18 23:30:00,
2013-03-18 17:00:00,54.2,46.1,30.15,NNE,26,1.0,4.0,74,0.00,,---,0.00,VWS V13.01,2013-03-19 00:00:00,
2013-03-18 17:30:00,52.3,47.0,30.15,NNE,25,1.0,6.0,82,0.00,,---,0.00,VWS V13.01,2013-03-19 00:30:00,
2013-03-18 18:00:00,50.1,46.1,30.16,NNE,24,0.0,5.0,86,0.00,,---,0.00,VWS V13.01,2013-03-19 01:00:00,
2013-03-18 18:30:00,46.4,42.8,30.16,NNE,24,0.0,0.0,87,0.00,,---,0.00,VWS V13.01,2013-03-19 01:30:00,
2013-03-18 19:00:00,43.9,39.7,30.18,NNE,24,0.0,0.0,85,0.00,,---,0.00,VWS V13.01,2013-03-19 02:00:00,
2013-03-18 19:30:00,43.6,35.5,30.16,NNE,25,0.0,2.0,73,0.00,,---,0.00,VWS V13.01,2013-03-19 02:30:00,
2013-03-18 20:00:00,47.6,30.9,30.16,ENE,57,4.0,5.0,52,0.00,,---,0.00,VWS V13.01,2013-03-19 03:00:00,
2013-03-18 20:30:00,49.4,36.5,30.15,ENE,75,2.0,7.0,61,0.00,,---,0.00,VWS V13.01,2013-03-19 03:30:00,
2013-03-18 21:00:00,46.7,37.8,30.16,ENE,75,0.0,4.0,71,0.00,,---,0.00,VWS V13.01,2013-03-19 04:00:00,
2013-03-18 21:30:00,48.5,37.3,30.12,NE,49,6.0,6.0,65,0.00,,---,0.00,VWS V13.01,2013-03-19 04:30:00,
2013-03-18 22:00:00,47.6,38.7,30.14,ENE,68,3.0,9.0,71,0.00,,---,0.00,VWS V13.01,2013-03-19 05:00:00,
2013-03-18 22:30:00,47.7,41.5,30.13,NE,46,3.0,9.0,79,0.00,,---,0.00,VWS V13.01,2013-03-19 05:30:00,
2013-03-18 23:00:00,44.6,39.8,30.15,ENE,74,0.0,10.0,83,0.00,,---,0.00,VWS V13.01,2013-03-19 06:00:00,
2013-03-18 23:30:00,44.5,41.5,30.13,ENE,74,0.0,4.0,89,0.00,,---,0.00,VWS V13.01,2013-03-19 06:30:00,